Regional Weather Roundup
Issued by NWS

Home | Current Version | Previous Version | Graphics & Text | Print | Product List | Glossary On
Versions: 1 2 3 4 5 6 7 8 9 10 11 12 13 14 15 16 17 18 19 20 21 22 23 24 25 26 27 28 29 30 31 32 33 34 35 36 37 38 39 40 41 42 43 44 45 46 47 48 49 50
000
ASUS43 KFSD 300510
RWRSD

WEATHER ROUNDUP FOR SOUTH DAKOTA
NATIONAL WEATHER SERVICE SIOUX FALLS SD
1200 AM CDT MON MAY 30 2016

NOTE: "FAIR" INDICATES FEW OR NO CLOUDS BELOW 12,000 FEET WITH NO
SIGNIFICANT WEATHER AND/OR OBSTRUCTIONS TO VISIBILITY.


SDZ001>005-009-010-012>017-300600-
NORTHWEST AND NORTH CENTRAL SOUTH DAKOTA

CITY           SKY/WX    TMP DP  RH WIND       PRES   REMARKS
BUFFALO          N/A     59  49  69 SE7       29.92F
FAITH            N/A     59  47  64 SE14      29.98F
MOBRIDGE       CLEAR     59  55  87 SE5       29.95S
$$

SDZ012>016-024>037-041>051-057-063-072>074-300600-
SOUTHWEST AND SOUTH CENTRAL SOUTH DAKOTA

CITY           SKY/WX    TMP DP  RH WIND       PRES   REMARKS
RAPID CTY ARPT CLOUDY    59  53  80 NE7       29.98S
PIERRE         CLEAR     64  53  67 SE8       29.96F
CUSTER         CLEAR     51  42  71 CALM      30.08F
ELLSWORTH AFB  CLOUDY    60  54  79 SW3       29.98S
PHILIP         CLEAR     59  56  89 E8        29.95F
PINE RIDGE     CLEAR     56  51  84 E7        29.96F
WINNER         MOCLDY    65  56  72 SE12      29.98S
$$

SDZ004>011-016>023-039-040-300600-
NORTHEAST SOUTH DAKOTA

CITY           SKY/WX    TMP DP  RH WIND       PRES   REMARKS
ABERDEEN       PTCLDY    60  50  69 S10       29.98R
WATERTOWN      CLEAR     62  50  64 S3        30.02R
BROOKINGS      CLEAR     61  54  77 SW5       30.03S
SISSETON         N/A     57  48  72 SW5       29.97S
$$

SDZ017-020-022-023-036>040-048>070-300600-
SOUTHEAST SOUTH DAKOTA

CITY           SKY/WX    TMP DP  RH WIND       PRES   REMARKS
SIOUX FALLS    CLEAR     56  52  86 NE3       30.02F
HURON          CLEAR     64  51  62 S8        29.99F
CHAMBERLAIN    PTCLDY    67  58  74 E8        29.97F
MITCHELL       CLOUDY    64  56  75 E6        30.00F
YANKTON        CLOUDY    66  54  63 E3        29.99S
$$

ABBREVIATIONS USED IN REMARKS
   TC - TEMPERATURE IN CELSIUS
  WCI - WIND CHILL INDEX
   HX - HEAT INDEX
  VSB - VISIBILITY





USA.gov is the U.S. government's official web portal to all federal, state and local government web resources and services.